Weather History for KOTG - January, 2014

Change the Weather History Date:

Sunday, January 19, 2014

  Actual Average Record
Temperature  
Mean Temperature 30 °F -  
Max Temperature 41 °F 21 °F 42 °F (1981)
Min Temperature 19 °F 6 °F -21 °F (1985)
Degree Days  
Heating Degree Days 35    
Moisture  
Dew Point 21 °F    
Average Humidity 68    
Maximum Humidity 80    
Minimum Humidity 57    
Precipitation  
Precipitation 0.00 in - - ()
Sea Level Pressure  
Sea Level Pressure 29.66 in    
Wind  
Wind Speed 19 mph (West)    
Max Wind Speed 25 mph    
Max Gust Speed 32 mph    
Visibility 10 miles    
Events      
Averages and records for this station are not official NWS values.
T = Trace of Precipitation, MM = Missing Value Source: NWS Daily Summary

Daily Weather History Graph

Daily Weather History Graph

Search for Another Location

Airport or City:

Trip Planner

Search our weather history database for the weather conditions in past years. The results will help you decide how hot, cold, wet, or windy it might be!

Date:

Astronomy

Jan. 19, 2014 Rise Set
Actual Time 7:50 AM CST 5:16 PM CST
Civil Twilight 7:18 AM CST 5:47 PM CST
Nautical Twilight 6:43 AM CST 6:22 PM CST
Astronomical Twilight 6:09 AM CST 6:57 PM CST
Moon 9:03 PM CST (1/19) 9:13 AM CST (1/19)
Length of Visible Light 10h 28m
Length of Day
9h 25m
Waning Gibbous, 89% of the Moon is Illuminated
Jan 19
Waning Gibbous
Jan 23
Last Quarter
Jan 30
New
Feb 6
First Quarter
Feb 14
Full

Hourly Weather History & Observations

Time (CST) Temp. Windchill Dew Point Humidity Pressure Visibility Wind Dir Wind Speed Gust Speed Precip Events Conditions
12:15 AM 21.2 °F 5.6 °F 14.0 °F 74% 29.80 in 10.0 mi SW 20.7 mph 24.2 mph N/A   Clear
12:35 AM 21.2 °F 4.9 °F 14.0 °F 74% 29.79 in 10.0 mi SW 23.0 mph 28.8 mph N/A   Clear
12:55 AM 19.4 °F 2.5 °F 12.2 °F 74% 29.79 in 6.0 mi SW 23.0 mph - N/A   Clear
1:15 AM 19.4 °F 2.5 °F 12.2 °F 74% 29.77 in 10.0 mi SW 23.0 mph 29.9 mph N/A   Clear
1:35 AM 21.2 °F 4.2 °F 14.0 °F 74% 29.75 in 10.0 mi SW 25.3 mph 31.1 mph N/A   Clear
1:55 AM 21.2 °F 4.5 °F 14.0 °F 74% 29.75 in 10.0 mi SW 24.2 mph 31.1 mph N/A   Clear
2:15 AM 21.2 °F 6.4 °F 14.0 °F 74% 29.74 in 10.0 mi SW 18.4 mph - N/A   Clear
2:35 AM 23.0 °F 8.3 °F 15.8 °F 74% 29.73 in 10.0 mi WSW 19.6 mph 24.2 mph N/A   Clear
2:55 AM 23.0 °F 7.6 °F 15.8 °F 74% 29.72 in 10.0 mi WSW 21.9 mph 27.6 mph N/A   Clear
3:15 AM 21.2 °F 6.8 °F 14.0 °F 74% 29.72 in 10.0 mi SW 17.3 mph - N/A   Clear
3:35 AM 21.2 °F 6.0 °F 15.8 °F 80% 29.71 in 10.0 mi SW 19.6 mph 23.0 mph N/A   Clear
3:55 AM 21.2 °F 6.8 °F 15.8 °F 80% 29.69 in 10.0 mi SW 17.3 mph - N/A   Clear
4:15 AM 21.2 °F 7.3 °F 15.8 °F 80% 29.68 in 10.0 mi SW 16.1 mph - N/A   Clear
4:35 AM 24.8 °F 10.3 °F 15.8 °F 69% 29.65 in 10.0 mi WSW 20.7 mph 25.3 mph N/A   Clear
4:55 AM 26.6 °F 11.7 °F 17.6 °F 69% 29.64 in 10.0 mi WSW 24.2 mph - N/A   Clear
5:15 AM 24.8 °F 9.6 °F 15.8 °F 69% 29.64 in 10.0 mi SW 23.0 mph 29.9 mph N/A   Clear
5:35 AM 26.6 °F 13.4 °F 15.8 °F 64% 29.63 in 10.0 mi WSW 18.4 mph - N/A   Clear
5:55 AM 26.6 °F 11.7 °F 15.8 °F 64% 29.63 in 10.0 mi WSW 24.2 mph 32.2 mph N/A   Clear
6:15 AM 24.8 °F 11.1 °F 15.8 °F 69% 29.64 in 10.0 mi WSW 18.4 mph 26.5 mph N/A   Clear
6:35 AM 24.8 °F 9.6 °F 15.8 °F 69% 29.63 in 10.0 mi WSW 23.0 mph 27.6 mph N/A   Clear
6:55 AM 24.8 °F 13.4 °F 15.8 °F 69% 29.64 in 10.0 mi WSW 12.7 mph - N/A   Clear
7:15 AM 26.6 °F 17.5 °F 15.8 °F 64% 29.64 in 10.0 mi WSW 9.2 mph - N/A   Clear
7:35 AM 26.6 °F 15.7 °F 15.8 °F 64% 29.62 in 10.0 mi SW 12.7 mph - N/A   Clear
7:55 AM 26.6 °F 17.5 °F 15.8 °F 64% 29.62 in 10.0 mi SW 9.2 mph - N/A   Clear
8:15 AM 26.6 °F 13.4 °F 15.8 °F 64% 29.62 in 10.0 mi WSW 18.4 mph 24.2 mph N/A   Clear
8:35 AM 26.6 °F 13.4 °F 15.8 °F 64% 29.63 in 10.0 mi WSW 18.4 mph - N/A   Clear
8:55 AM 26.6 °F 13.8 °F 15.8 °F 64% 29.64 in 10.0 mi WSW 17.3 mph 23.0 mph N/A   Clear
9:15 AM 26.6 °F 13.4 °F 17.6 °F 69% 29.64 in 10.0 mi WSW 18.4 mph - N/A   Clear
9:35 AM 28.4 °F 17.5 °F 17.6 °F 64% 29.63 in 10.0 mi WSW 13.8 mph - N/A   Clear
9:55 AM 28.4 °F 17.5 °F 17.6 °F 64% 29.61 in 10.0 mi WSW 13.8 mph - N/A   Clear
10:15 AM 28.4 °F 16.2 °F 19.4 °F 69% 29.63 in 10.0 mi WSW 17.3 mph - N/A   Clear
10:35 AM 30.2 °F 20.2 °F 19.4 °F 64% 29.62 in 10.0 mi WSW 12.7 mph - N/A   Clear
10:55 AM 32.0 °F 20.8 °F 21.2 °F 64% 29.63 in 10.0 mi West 17.3 mph 21.9 mph N/A   Clear
11:15 AM 33.8 °F 22.8 °F 21.2 °F 60% 29.62 in 10.0 mi WSW 18.4 mph - N/A   Clear
11:35 AM 33.8 °F 24.8 °F 21.2 °F 60% 29.59 in 10.0 mi WSW 12.7 mph - N/A   Clear
11:55 AM 35.6 °F 27.1 °F 23.0 °F 60% 29.58 in 10.0 mi WSW 12.7 mph - N/A   Clear
12:15 PM 35.6 °F 26.6 °F 24.8 °F 65% 29.57 in 10.0 mi WSW 13.8 mph 19.6 mph N/A   Clear
12:35 PM 37.4 °F 28.2 °F 24.8 °F 60% 29.55 in 10.0 mi WSW 16.1 mph - N/A   Clear
12:55 PM 37.4 °F 26.6 °F 26.6 °F 65% 29.54 in 10.0 mi West 21.9 mph - N/A   Clear
1:15 PM 39.2 °F 29.8 °F 26.6 °F 61% 29.54 in 10.0 mi WSW 18.4 mph - N/A   Clear
1:35 PM 39.2 °F 28.3 °F 26.6 °F 61% 29.53 in 10.0 mi West 25.3 mph - N/A   Clear
1:55 PM 39.2 °F 29.3 °F 26.6 °F 61% 29.53 in 10.0 mi WSW 20.7 mph 27.6 mph N/A   Clear
2:15 PM 39.2 °F 30.8 °F 26.6 °F 61% 29.54 in 10.0 mi West 15.0 mph - N/A   Clear
2:35 PM 39.2 °F 29.0 °F 26.6 °F 61% 29.54 in 10.0 mi West 21.9 mph - N/A   Clear
2:55 PM 41.0 °F 30.9 °F 26.6 °F 57% 29.55 in 10.0 mi West 24.2 mph 29.9 mph N/A   Clear
3:15 PM 39.2 °F 29.3 °F 26.6 °F 61% 29.57 in 10.0 mi West 20.7 mph - N/A   Clear
3:35 PM 39.2 °F 29.6 °F 26.6 °F 61% 29.59 in 10.0 mi West 19.6 mph 23.0 mph N/A   Clear
3:55 PM 39.2 °F 29.0 °F 26.6 °F 61% 29.60 in 10.0 mi West 21.9 mph 26.5 mph N/A   Clear
4:15 PM 39.2 °F 29.0 °F 26.6 °F 61% 29.61 in 10.0 mi WNW 21.9 mph - N/A   Clear
4:35 PM 39.2 °F 29.3 °F 26.6 °F 61% 29.62 in 10.0 mi West 20.7 mph 27.6 mph N/A   Clear
4:55 PM 37.4 °F 26.9 °F 26.6 °F 65% 29.63 in 10.0 mi WNW 20.7 mph - N/A   Clear
5:15 PM 37.4 °F 27.5 °F 26.6 °F 65% 29.65 in 10.0 mi WNW 18.4 mph 25.3 mph N/A   Clear
5:35 PM 37.4 °F 26.9 °F 26.6 °F 65% 29.65 in 10.0 mi WNW 20.7 mph - N/A   Clear
5:55 PM 37.4 °F 27.8 °F 26.6 °F 65% 29.66 in 10.0 mi WNW 17.3 mph - N/A   Clear
6:15 PM 35.6 °F 25.5 °F 26.6 °F 70% 29.68 in 10.0 mi WNW 17.3 mph - N/A   Clear
6:35 PM 35.6 °F 25.9 °F 26.6 °F 70% 29.69 in 10.0 mi WNW 16.1 mph - N/A   Clear
6:55 PM 35.6 °F 25.9 °F 26.6 °F 70% 29.70 in 10.0 mi WNW 16.1 mph - N/A   Clear
7:15 PM 35.6 °F 26.2 °F 26.6 °F 70% 29.70 in 10.0 mi WNW 15.0 mph - N/A   Clear
7:35 PM 35.6 °F 26.2 °F 26.6 °F 70% 29.71 in 10.0 mi WNW 15.0 mph - N/A   Clear
7:55 PM 35.6 °F 27.1 °F 26.6 °F 70% 29.71 in 10.0 mi WNW 12.7 mph - N/A   Clear
8:15 PM 35.6 °F 27.1 °F 26.6 °F 70% 29.72 in 10.0 mi WNW 12.7 mph - N/A   Clear
8:35 PM 33.8 °F 24.3 °F 24.8 °F 70% 29.73 in 10.0 mi WNW 13.8 mph - N/A   Clear
8:55 PM 33.8 °F 25.3 °F 26.6 °F 75% 29.74 in 10.0 mi WNW 11.5 mph - N/A   Clear
9:15 PM 33.8 °F 25.3 °F 24.8 °F 70% 29.74 in 10.0 mi WNW 11.5 mph - N/A   Clear
9:35 PM 33.8 °F 25.8 °F 24.8 °F 70% 29.74 in 10.0 mi WNW 10.4 mph - N/A   Clear
9:55 PM 33.8 °F 25.8 °F 24.8 °F 70% 29.74 in 10.0 mi West 10.4 mph - N/A   Clear
10:15 PM 32.0 °F 23.0 °F 24.8 °F 75% 29.75 in 10.0 mi West 11.5 mph - N/A   Clear
10:35 PM 32.0 °F 23.6 °F 23.0 °F 69% 29.76 in 10.0 mi West 10.4 mph - N/A   Clear
10:55 PM 32.0 °F 23.6 °F 24.8 °F 75% 29.76 in 10.0 mi West 10.4 mph - N/A   Clear
11:15 PM 32.0 °F 22.5 °F 24.8 °F 75% 29.76 in 10.0 mi WNW 12.7 mph - N/A   Clear
11:35 PM 32.0 °F 22.5 °F 24.8 °F 75% 29.76 in 10.0 mi WNW 12.7 mph - N/A   Clear
11:55 PM 32.0 °F 22.5 °F 24.8 °F 75% 29.76 in 10.0 mi WNW 12.7 mph - N/A   Clear